Time,TemperatureF,DewpointF,PressureIn,WindDirection,WindDirectionDegrees,WindSpeedMPH,WindSpeedGustMPH,Humidity,HourlyPrecipIn,Conditions,Clouds,dailyrainin,SoftwareType,DateUTC
2013-08-11 00:01:00,83.7,76.5,30.13,NW,315,0.0,1.0,79,0.00,,,0.03,meteohub,2013-08-11 04:01:00,
2013-08-11 00:02:00,83.7,76.5,30.12,NW,315,0.0,1.0,79,0.00,,,0.03,meteohub,2013-08-11 04:02:00,
2013-08-11 00:04:00,83.5,76.3,30.13,NW,315,0.0,1.0,79,0.00,,,0.03,meteohub,2013-08-11 04:04:00,
2013-08-11 00:06:00,83.5,76.6,30.13,NW,315,0.0,0.0,80,0.00,,,0.00,meteohub,2013-08-11 04:06:00,
2013-08-11 00:11:00,83.5,76.6,30.13,NW,315,0.0,1.0,80,0.00,,,0.00,meteohub,2013-08-11 04:11:00,
2013-08-11 00:16:00,83.5,76.6,30.13,NW,315,0.0,1.0,80,0.00,,,0.00,meteohub,2013-08-11 04:16:00,
2013-08-11 00:22:00,83.7,76.8,30.13,NW,315,2.0,2.0,80,0.00,,,0.00,meteohub,2013-08-11 04:22:00,
2013-08-11 00:27:00,83.7,76.5,30.13,NW,315,0.0,2.0,79,0.00,,,0.00,meteohub,2013-08-11 04:27:00,
2013-08-11 00:32:00,83.8,77.0,30.13,NW,315,0.0,4.0,80,0.00,,,0.00,meteohub,2013-08-11 04:32:00,
2013-08-11 00:37:00,83.8,77.0,30.13,NNE,19,0.0,6.0,80,0.00,,,0.00,meteohub,2013-08-11 04:37:00,
2013-08-11 00:42:00,84.0,76.8,30.13,NNE,19,0.0,6.0,79,0.00,,,0.00,meteohub,2013-08-11 04:42:00,
2013-08-11 00:48:00,84.2,77.0,30.13,NNE,19,0.0,6.0,79,0.00,,,0.00,meteohub,2013-08-11 04:48:00,
2013-08-11 00:53:00,84.2,77.0,30.13,ENE,69,1.0,6.0,79,0.00,,,0.00,meteohub,2013-08-11 04:53:00,
2013-08-11 00:58:00,84.9,76.8,30.13,East,86,15.0,15.0,77,0.00,,,0.00,meteohub,2013-08-11 04:58:00,
2013-08-11 01:04:00,85.5,76.6,30.13,East,79,5.0,17.0,75,0.00,,,0.00,meteohub,2013-08-11 05:04:00,
2013-08-11 01:09:00,85.5,76.3,30.13,East,96,11.0,17.0,74,0.00,,,0.00,meteohub,2013-08-11 05:09:00,
2013-08-11 01:14:00,85.5,76.6,30.12,East,95,9.0,17.0,75,0.00,,,0.00,meteohub,2013-08-11 05:14:00,
2013-08-11 01:19:00,85.3,76.5,30.12,ESE,121,4.0,16.0,75,0.00,,,0.00,meteohub,2013-08-11 05:19:00,
2013-08-11 01:24:00,85.1,76.3,30.12,SE,125,5.0,13.0,75,0.00,,,0.00,meteohub,2013-08-11 05:24:00,
2013-08-11 01:30:00,84.7,76.3,30.12,ESE,104,7.0,14.0,76,0.00,,,0.00,meteohub,2013-08-11 05:30:00,
2013-08-11 01:35:00,84.7,75.9,30.12,ESE,114,5.0,12.0,75,0.00,,,0.00,meteohub,2013-08-11 05:35:00,
2013-08-11 01:40:00,84.6,76.1,30.11,ENE,76,7.0,13.0,76,0.00,,,0.00,meteohub,2013-08-11 05:40:00,
2013-08-11 01:46:00,84.6,76.5,30.12,SSE,152,7.0,13.0,77,0.00,,,0.00,meteohub,2013-08-11 05:46:00,
2013-08-11 01:51:00,84.4,75.9,30.11,East,101,8.0,13.0,76,0.00,,,0.00,meteohub,2013-08-11 05:51:00,
2013-08-11 01:57:00,84.2,76.3,30.11,SE,142,7.0,12.0,77,0.00,,,0.00,meteohub,2013-08-11 05:57:00,
2013-08-11 02:02:00,84.0,76.5,30.11,ESE,104,9.0,13.0,78,0.00,,,0.00,meteohub,2013-08-11 06:02:00,
2013-08-11 02:07:00,84.0,76.5,30.11,ESE,113,11.0,13.0,78,0.00,,,0.00,meteohub,2013-08-11 06:07:00,
2013-08-11 02:12:00,84.0,76.8,30.11,ESE,109,9.0,16.0,79,0.00,,,0.00,meteohub,2013-08-11 06:12:00,
2013-08-11 02:17:00,83.8,76.6,30.12,ESE,110,4.0,16.0,79,0.00,,,0.00,meteohub,2013-08-11 06:17:00,
2013-08-11 02:23:00,83.7,76.5,30.12,ESE,110,8.0,14.0,79,0.00,,,0.00,meteohub,2013-08-11 06:23:00,
2013-08-11 02:28:00,83.7,76.5,30.12,East,96,5.0,13.0,79,0.00,,,0.00,meteohub,2013-08-11 06:28:00,
2013-08-11 02:33:00,83.5,76.3,30.12,East,100,10.0,12.0,79,0.00,,,0.00,meteohub,2013-08-11 06:33:00,
2013-08-11 02:38:00,83.5,76.3,30.12,East,92,10.0,12.0,79,0.00,,,0.00,meteohub,2013-08-11 06:38:00,
2013-08-11 02:43:00,83.5,76.3,30.11,East,98,7.0,14.0,79,0.00,,,0.00,meteohub,2013-08-11 06:43:00,
2013-08-11 02:48:00,83.3,76.1,30.11,East,94,10.0,15.0,79,0.00,,,0.00,meteohub,2013-08-11 06:48:00,
2013-08-11 02:53:00,83.1,75.9,30.11,East,96,10.0,15.0,79,0.00,,,0.00,meteohub,2013-08-11 06:53:00,
2013-08-11 02:58:00,83.1,76.3,30.11,East,98,10.0,15.0,80,0.00,,,0.00,meteohub,2013-08-11 06:58:00,
2013-08-11 03:04:00,82.9,76.1,30.11,ENE,65,11.0,15.0,80,0.00,,,0.00,meteohub,2013-08-11 07:04:00,
2013-08-11 03:09:00,82.9,76.1,30.12,East,98,10.0,15.0,80,0.00,,,0.00,meteohub,2013-08-11 07:09:00,
2013-08-11 03:14:00,82.8,75.6,30.12,East,99,8.0,15.0,79,0.00,,,0.00,meteohub,2013-08-11 07:14:00,
2013-08-11 03:19:00,82.8,75.9,30.12,East,89,8.0,14.0,80,0.00,,,0.00,meteohub,2013-08-11 07:19:00,
2013-08-11 03:25:00,82.6,75.7,30.11,East,100,9.0,13.0,80,0.00,,,0.00,meteohub,2013-08-11 07:25:00,
2013-08-11 03:30:00,82.6,75.7,30.11,ESE,106,9.0,14.0,80,0.00,,,0.00,meteohub,2013-08-11 07:30:00,
2013-08-11 03:35:00,82.6,75.4,30.11,East,88,13.0,15.0,79,0.00,,,0.00,meteohub,2013-08-11 07:35:00,
2013-08-11 03:40:00,82.6,75.7,30.11,East,93,13.0,15.0,80,0.00,,,0.00,meteohub,2013-08-11 07:40:00,
2013-08-11 03:45:00,82.4,75.6,30.11,East,84,9.0,14.0,80,0.00,,,0.00,meteohub,2013-08-11 07:45:00,
2013-08-11 03:51:00,82.2,75.4,30.11,East,84,10.0,14.0,80,0.00,,,0.00,meteohub,2013-08-11 07:51:00,
2013-08-11 03:56:00,82.2,75.4,30.11,ENE,74,12.0,14.0,80,0.00,,,0.00,meteohub,2013-08-11 07:56:00,
2013-08-11 04:01:00,82.2,75.4,30.11,ESE,112,5.0,14.0,80,0.00,,,0.00,meteohub,2013-08-11 08:01:00,
2013-08-11 04:07:00,82.2,75.7,30.11,East,90,7.0,14.0,81,0.00,,,0.00,meteohub,2013-08-11 08:07:00,
2013-08-11 04:12:00,82.0,75.6,30.11,East,93,9.0,14.0,81,0.00,,,0.00,meteohub,2013-08-11 08:12:00,
2013-08-11 04:17:00,82.0,75.9,30.12,ESE,105,7.0,14.0,82,0.00,,,0.00,meteohub,2013-08-11 08:17:00,
2013-08-11 04:22:00,82.0,75.9,30.12,ESE,104,7.0,14.0,82,0.00,,,0.00,meteohub,2013-08-11 08:22:00,
2013-08-11 04:27:00,82.0,75.9,30.11,ESE,106,11.0,15.0,82,0.00,,,0.00,meteohub,2013-08-11 08:27:00,
2013-08-11 04:32:00,82.0,75.9,30.12,East,100,6.0,15.0,82,0.00,,,0.00,meteohub,2013-08-11 08:32:00,
2013-08-11 04:37:00,82.0,76.3,30.11,East,88,8.0,13.0,83,0.00,,,0.00,meteohub,2013-08-11 08:37:00,
2013-08-11 04:42:00,81.9,75.7,30.12,ESE,104,7.0,13.0,82,0.00,,,0.00,meteohub,2013-08-11 08:42:00,
2013-08-11 04:47:00,81.9,75.4,30.12,East,99,11.0,12.0,81,0.00,,,0.00,meteohub,2013-08-11 08:47:00,
2013-08-11 04:52:00,81.9,75.7,30.11,ESE,105,12.0,13.0,82,0.00,,,0.00,meteohub,2013-08-11 08:52:00,
2013-08-11 04:57:00,81.9,75.7,30.11,ESE,111,5.0,13.0,82,0.00,,,0.00,meteohub,2013-08-11 08:57:00,
2013-08-11 05:02:00,81.9,75.7,30.11,East,101,10.0,13.0,82,0.00,,,0.00,meteohub,2013-08-11 09:02:00,
2013-08-11 05:07:00,81.9,75.7,30.11,East,92,7.0,14.0,82,0.00,,,0.00,meteohub,2013-08-11 09:07:00,
2013-08-11 05:12:00,81.7,75.6,30.11,ESE,102,11.0,14.0,82,0.00,,,0.00,meteohub,2013-08-11 09:12:00,
2013-08-11 05:17:00,81.9,75.7,30.11,ENE,75,9.0,14.0,82,0.00,,,0.00,meteohub,2013-08-11 09:17:00,
2013-08-11 05:22:00,81.9,76.1,30.11,SE,126,7.0,14.0,83,0.00,,,0.00,meteohub,2013-08-11 09:22:00,
2013-08-11 05:28:00,81.9,76.1,30.11,ESE,115,4.0,14.0,83,0.00,,,0.00,meteohub,2013-08-11 09:28:00,
2013-08-11 05:33:00,81.7,75.9,30.11,ESE,109,9.0,13.0,83,0.00,,,0.00,meteohub,2013-08-11 09:33:00,
2013-08-11 05:38:00,81.7,76.3,30.12,ENE,78,4.0,13.0,84,0.00,,,0.00,meteohub,2013-08-11 09:38:00,
2013-08-11 05:43:00,81.7,76.3,30.12,East,96,6.0,11.0,84,0.00,,,0.00,meteohub,2013-08-11 09:43:00,
2013-08-11 05:48:00,81.7,76.3,30.12,ESE,104,9.0,11.0,84,0.00,,,0.00,meteohub,2013-08-11 09:48:00,
2013-08-11 05:54:00,81.5,76.3,30.12,East,83,10.0,14.0,84,0.00,,,0.00,meteohub,2013-08-11 09:54:00,
2013-08-11 05:59:00,81.5,76.3,30.12,ESE,107,10.0,14.0,84,0.00,,,0.00,meteohub,2013-08-11 09:59:00,
2013-08-11 06:05:00,81.3,76.1,30.12,East,88,8.0,14.0,84,0.00,,,0.00,meteohub,2013-08-11 10:05:00,
2013-08-11 06:10:00,81.3,76.1,30.12,East,84,10.0,14.0,84,0.00,,,0.00,meteohub,2013-08-11 10:10:00,
2013-08-11 06:15:00,81.3,76.5,30.12,East,85,9.0,14.0,85,0.00,,,0.00,meteohub,2013-08-11 10:15:00,
2013-08-11 06:20:00,81.3,76.1,30.12,ESE,103,10.0,16.0,84,0.00,,,0.00,meteohub,2013-08-11 10:20:00,
2013-08-11 06:25:00,81.3,76.1,30.12,ESE,110,8.0,16.0,84,0.00,,,0.00,meteohub,2013-08-11 10:25:00,
2013-08-11 06:31:00,81.1,75.9,30.12,East,93,14.0,14.0,84,0.00,,,0.00,meteohub,2013-08-11 10:31:00,
2013-08-11 06:36:00,81.1,75.9,30.12,ENE,67,8.0,14.0,84,0.00,,,0.00,meteohub,2013-08-11 10:36:00,
2013-08-11 06:42:00,81.1,75.9,30.12,East,87,8.0,17.0,84,0.00,,,0.00,meteohub,2013-08-11 10:42:00,
2013-08-11 06:47:00,81.1,75.9,30.12,ESE,106,9.0,17.0,84,0.00,,,0.00,meteohub,2013-08-11 10:47:00,
2013-08-11 06:52:00,81.1,75.9,30.12,East,94,15.0,17.0,84,0.00,,,0.00,meteohub,2013-08-11 10:52:00,
2013-08-11 06:57:00,81.3,76.1,30.13,ENE,66,9.0,15.0,84,0.00,,,0.00,meteohub,2013-08-11 10:57:00,
2013-08-11 07:02:00,81.3,76.1,30.13,East,85,8.0,16.0,84,0.00,,,0.00,meteohub,2013-08-11 11:02:00,
2013-08-11 07:07:00,81.3,76.1,30.13,East,94,9.0,16.0,84,0.00,,,0.00,meteohub,2013-08-11 11:07:00,
2013-08-11 07:12:00,81.3,76.1,30.13,East,92,8.0,16.0,84,0.00,,,0.00,meteohub,2013-08-11 11:12:00,
2013-08-11 07:17:00,81.3,76.1,30.13,East,80,9.0,15.0,84,0.00,,,0.00,meteohub,2013-08-11 11:17:00,
2013-08-11 07:22:00,81.3,76.1,30.13,ESE,108,11.0,15.0,84,0.00,,,0.00,meteohub,2013-08-11 11:22:00,
2013-08-11 07:27:00,81.3,76.5,30.14,ENE,69,9.0,16.0,85,0.00,,,0.00,meteohub,2013-08-11 11:27:00,
2013-08-11 07:32:00,81.3,76.1,30.14,ESE,107,10.0,16.0,84,0.00,,,0.00,meteohub,2013-08-11 11:32:00,
2013-08-11 07:38:00,81.5,76.5,30.14,East,88,13.0,15.0,85,0.00,,,0.00,meteohub,2013-08-11 11:38:00,
2013-08-11 07:43:00,81.7,76.3,30.14,ESE,115,9.0,15.0,84,0.00,,,0.00,meteohub,2013-08-11 11:43:00,
2013-08-11 07:48:00,81.7,76.3,30.14,East,90,10.0,14.0,84,0.00,,,0.00,meteohub,2013-08-11 11:48:00,
2013-08-11 07:54:00,81.9,76.5,30.14,ESE,111,12.0,14.0,84,0.00,,,0.00,meteohub,2013-08-11 11:54:00,
2013-08-11 08:00:00,82.0,76.6,30.14,ENE,76,9.0,14.0,84,0.00,,,0.00,meteohub,2013-08-11 12:00:00,
2013-08-11 08:05:00,82.2,76.8,30.14,ESE,103,7.0,13.0,84,0.00,,,0.00,meteohub,2013-08-11 12:05:00,
2013-08-11 08:10:00,82.2,76.5,30.14,East,92,9.0,13.0,83,0.00,,,0.00,meteohub,2013-08-11 12:10:00,
2013-08-11 08:16:00,82.2,76.8,30.14,East,91,10.0,15.0,84,0.00,,,0.00,meteohub,2013-08-11 12:16:00,
2013-08-11 08:21:00,82.2,76.5,30.14,East,87,15.0,15.0,83,0.00,,,0.00,meteohub,2013-08-11 12:21:00,
2013-08-11 08:26:00,82.6,76.8,30.14,ENE,74,11.0,16.0,83,0.00,,,0.00,meteohub,2013-08-11 12:26:00,
2013-08-11 08:31:00,82.4,76.6,30.14,East,100,15.0,17.0,83,0.00,,,0.00,meteohub,2013-08-11 12:31:00,
2013-08-11 08:36:00,82.6,76.8,30.14,ESE,103,13.0,17.0,83,0.00,,,0.00,meteohub,2013-08-11 12:36:00,
2013-08-11 08:42:00,82.8,77.0,30.14,ESE,103,9.0,17.0,83,0.00,,,0.00,meteohub,2013-08-11 12:42:00,
2013-08-11 08:47:00,82.9,77.2,30.14,East,83,13.0,17.0,83,0.00,,,0.00,meteohub,2013-08-11 12:47:00,
2013-08-11 08:52:00,82.9,76.8,30.14,East,96,13.0,17.0,82,0.00,,,0.00,meteohub,2013-08-11 12:52:00,
2013-08-11 08:57:00,82.9,76.8,30.14,ENE,76,11.0,16.0,82,0.00,,,0.00,meteohub,2013-08-11 12:57:00,
2013-08-11 09:02:00,82.9,76.8,30.14,East,87,9.0,16.0,82,0.00,,,0.00,meteohub,2013-08-11 13:02:00,
2013-08-11 09:07:00,82.9,76.8,30.14,East,89,13.0,16.0,82,0.00,,,0.00,meteohub,2013-08-11 13:07:00,
2013-08-11 09:12:00,83.1,77.0,30.14,ESE,111,10.0,15.0,82,0.00,,,0.00,meteohub,2013-08-11 13:12:00,
2013-08-11 09:17:00,83.3,77.2,30.15,East,93,10.0,16.0,82,0.00,,,0.00,meteohub,2013-08-11 13:17:00,
2013-08-11 09:22:00,83.3,76.8,30.15,East,94,7.0,16.0,81,0.00,,,0.00,meteohub,2013-08-11 13:22:00,
2013-08-11 09:27:00,83.5,77.0,30.15,East,89,8.0,15.0,81,0.00,,,0.00,meteohub,2013-08-11 13:27:00,
2013-08-11 09:32:00,83.7,76.8,30.15,East,96,9.0,15.0,80,0.00,,,0.00,meteohub,2013-08-11 13:32:00,
2013-08-11 09:37:00,83.8,77.4,30.15,ENE,69,9.0,15.0,81,0.00,,,0.00,meteohub,2013-08-11 13:37:00,
2013-08-11 09:42:00,83.8,77.0,30.15,ESE,106,13.0,15.0,80,0.00,,,0.00,meteohub,2013-08-11 13:42:00,
2013-08-11 09:48:00,84.0,76.8,30.15,East,93,1.0,15.0,79,0.00,,,0.00,meteohub,2013-08-11 13:48:00,
2013-08-11 09:53:00,84.4,77.2,30.15,ESE,116,12.0,15.0,79,0.00,,,0.00,meteohub,2013-08-11 13:53:00,
2013-08-11 09:58:00,84.4,77.2,30.15,ENE,62,5.0,15.0,79,0.00,,,0.00,meteohub,2013-08-11 13:58:00,
2013-08-11 10:04:00,84.6,77.0,30.15,East,82,6.0,15.0,78,0.00,,,0.00,meteohub,2013-08-11 14:04:00,
2013-08-11 10:10:00,84.7,77.2,30.16,East,96,10.0,15.0,78,0.00,,,0.00,meteohub,2013-08-11 14:10:00,
2013-08-11 10:15:00,84.9,77.4,30.16,ESE,109,11.0,15.0,78,0.00,,,0.00,meteohub,2013-08-11 14:15:00,
2013-08-11 10:21:00,84.9,77.4,30.16,East,90,3.0,14.0,78,0.00,,,0.00,meteohub,2013-08-11 14:21:00,
2013-08-11 10:27:00,85.1,77.0,30.16,ENE,70,7.0,14.0,77,0.00,,,0.00,meteohub,2013-08-11 14:27:00,
2013-08-11 10:32:00,85.3,77.2,30.16,East,83,5.0,14.0,77,0.00,,,0.00,meteohub,2013-08-11 14:32:00,
2013-08-11 10:37:00,85.5,77.4,30.16,ENE,71,5.0,13.0,77,0.00,,,0.00,meteohub,2013-08-11 14:37:00,
2013-08-11 10:42:00,85.5,77.4,30.16,East,86,6.0,13.0,77,0.00,,,0.00,meteohub,2013-08-11 14:42:00,
2013-08-11 10:48:00,85.6,77.5,30.16,East,95,6.0,13.0,77,0.00,,,0.00,meteohub,2013-08-11 14:48:00,
2013-08-11 10:53:00,85.8,77.7,30.16,ENE,74,5.0,12.0,77,0.00,,,0.00,meteohub,2013-08-11 14:53:00,
2013-08-11 10:58:00,86.4,77.9,30.16,East,84,5.0,12.0,76,0.00,,,0.00,meteohub,2013-08-11 14:58:00,
2013-08-11 11:04:00,86.7,77.9,30.16,ENE,71,2.0,11.0,75,0.00,,,0.00,meteohub,2013-08-11 15:04:00,
2013-08-11 11:09:00,87.1,78.3,30.16,East,89,8.0,13.0,75,0.00,,,0.00,meteohub,2013-08-11 15:09:00,
2013-08-11 11:14:00,87.3,77.5,30.16,ENE,67,5.0,13.0,73,0.00,,,0.00,meteohub,2013-08-11 15:14:00,
2013-08-11 11:19:00,87.6,77.5,30.16,East,101,10.0,10.0,72,0.00,,,0.00,meteohub,2013-08-11 15:19:00,
2013-08-11 11:25:00,88.0,78.3,30.16,ENE,76,3.0,11.0,73,0.00,,,0.00,meteohub,2013-08-11 15:25:00,
2013-08-11 11:30:00,88.0,77.9,30.16,ENE,76,2.0,11.0,72,0.00,,,0.00,meteohub,2013-08-11 15:30:00,
2013-08-11 11:36:00,88.2,77.9,30.16,East,88,0.0,11.0,72,0.00,,,0.00,meteohub,2013-08-11 15:36:00,
2013-08-11 11:41:00,88.5,77.9,30.16,ENE,75,3.0,11.0,71,0.00,,,0.00,meteohub,2013-08-11 15:41:00,
2013-08-11 11:47:00,88.5,77.5,30.16,East,101,3.0,11.0,70,0.00,,,0.00,meteohub,2013-08-11 15:47:00,
2013-08-11 11:52:00,88.5,77.9,30.16,ENE,73,4.0,13.0,71,0.00,,,0.00,meteohub,2013-08-11 15:52:00,
2013-08-11 11:58:00,89.1,78.1,30.16,East,83,5.0,13.0,70,0.00,,,0.00,meteohub,2013-08-11 15:58:00,
2013-08-11 12:03:00,89.2,77.7,30.16,ENE,76,4.0,13.0,69,0.00,,,0.00,meteohub,2013-08-11 16:03:00,
2013-08-11 12:09:00,89.8,78.3,30.16,ENE,78,5.0,9.0,69,0.00,,,0.00,meteohub,2013-08-11 16:09:00,
2013-08-11 12:14:00,90.0,78.8,30.15,ENE,73,5.0,9.0,70,0.00,,,0.00,meteohub,2013-08-11 16:14:00,
2013-08-11 12:20:00,90.5,78.4,30.15,ENE,76,2.0,10.0,68,0.00,,,0.00,meteohub,2013-08-11 16:20:00,
2013-08-11 12:25:00,90.9,78.8,30.15,East,80,3.0,10.0,68,0.00,,,0.00,meteohub,2013-08-11 16:25:00,
2013-08-11 12:30:00,91.0,79.5,30.15,ENE,78,1.0,8.0,69,0.00,,,0.00,meteohub,2013-08-11 16:30:00,
2013-08-11 12:35:00,91.2,79.2,30.14,ENE,78,2.0,8.0,68,0.00,,,0.00,meteohub,2013-08-11 16:35:00,
2013-08-11 12:41:00,91.6,79.0,30.14,East,80,0.0,7.0,67,0.00,,,0.00,meteohub,2013-08-11 16:41:00,
2013-08-11 12:46:00,91.9,79.0,30.14,East,80,1.0,7.0,66,0.00,,,0.00,meteohub,2013-08-11 16:46:00,
2013-08-11 12:51:00,92.3,78.8,30.15,East,80,2.0,6.0,65,0.00,,,0.00,meteohub,2013-08-11 16:51:00,
2013-08-11 12:56:00,93.0,79.0,30.15,East,80,0.0,6.0,64,0.00,,,0.00,meteohub,2013-08-11 16:56:00,
2013-08-11 13:02:00,93.7,79.2,30.14,East,81,1.0,6.0,63,0.00,,,0.00,meteohub,2013-08-11 17:02:00,
2013-08-11 13:07:00,93.7,79.2,30.14,East,80,1.0,5.0,63,0.00,,,0.00,meteohub,2013-08-11 17:07:00,
2013-08-11 13:12:00,93.9,79.0,30.14,East,80,0.0,5.0,62,0.00,,,0.00,meteohub,2013-08-11 17:12:00,
2013-08-11 13:17:00,94.3,78.8,30.14,ENE,65,1.0,5.0,61,0.00,,,0.00,meteohub,2013-08-11 17:17:00,
2013-08-11 13:22:00,94.5,78.4,30.14,ENE,65,5.0,7.0,60,0.00,,,0.00,meteohub,2013-08-11 17:22:00,
2013-08-11 13:27:00,94.6,78.1,30.14,ENE,65,0.0,7.0,59,0.00,,,0.00,meteohub,2013-08-11 17:27:00,
2013-08-11 13:32:00,94.8,77.7,30.14,ENE,65,2.0,7.0,58,0.00,,,0.00,meteohub,2013-08-11 17:32:00,
2013-08-11 13:37:00,94.6,78.1,30.14,ENE,71,4.0,8.0,59,0.00,,,0.00,meteohub,2013-08-11 17:37:00,
2013-08-11 13:43:00,94.5,77.4,30.14,ENE,77,7.0,8.0,58,0.00,,,0.00,meteohub,2013-08-11 17:43:00,
2013-08-11 13:49:00,94.6,78.1,30.14,ENE,75,0.0,8.0,59,0.00,,,0.00,meteohub,2013-08-11 17:49:00,
2013-08-11 13:54:00,95.4,78.3,30.14,ENE,75,0.0,8.0,58,0.00,,,0.00,meteohub,2013-08-11 17:54:00,
2013-08-11 13:59:00,95.7,77.5,30.14,ENE,75,0.0,8.0,56,0.00,,,0.00,meteohub,2013-08-11 17:59:00,
2013-08-11 14:04:00,96.4,77.5,30.14,ENE,75,1.0,8.0,55,0.00,,,0.00,meteohub,2013-08-11 18:04:00,
2013-08-11 14:10:00,97.3,77.4,30.14,ENE,75,1.0,8.0,53,0.00,,,0.00,meteohub,2013-08-11 18:10:00,
2013-08-11 14:15:00,97.9,77.9,30.13,ENE,75,1.0,3.0,53,0.00,,,0.00,meteohub,2013-08-11 18:15:00,
2013-08-11 14:20:00,98.2,77.5,30.13,ENE,75,3.0,3.0,52,0.00,,,0.00,meteohub,2013-08-11 18:20:00,
2013-08-11 14:26:00,98.2,77.5,30.13,ENE,75,1.0,4.0,52,0.00,,,0.00,meteohub,2013-08-11 18:26:00,
2013-08-11 14:32:00,98.2,77.0,30.13,ENE,75,1.0,4.0,51,0.00,,,0.00,meteohub,2013-08-11 18:32:00,
2013-08-11 14:37:00,98.4,77.2,30.12,ENE,75,2.0,3.0,51,0.00,,,0.00,meteohub,2013-08-11 18:37:00,
2013-08-11 14:42:00,98.4,78.3,30.12,ENE,75,5.0,5.0,53,0.00,,,0.00,meteohub,2013-08-11 18:42:00,
2013-08-11 14:47:00,98.2,78.1,30.12,ENE,75,4.0,5.0,53,0.00,,,0.00,meteohub,2013-08-11 18:47:00,
2013-08-11 14:52:00,97.3,77.4,30.12,ENE,75,3.0,7.0,53,0.00,,,0.00,meteohub,2013-08-11 18:52:00,
2013-08-11 14:57:00,96.4,76.5,30.12,ENE,75,0.0,7.0,53,0.00,,,0.00,meteohub,2013-08-11 18:57:00,
2013-08-11 15:03:00,96.1,77.9,30.12,ENE,75,3.0,7.0,56,0.00,,,0.00,meteohub,2013-08-11 19:03:00,
2013-08-11 15:08:00,95.5,77.4,30.11,ENE,75,1.0,7.0,56,0.00,,,0.00,meteohub,2013-08-11 19:08:00,
2013-08-11 15:13:00,95.2,77.5,30.11,East,82,3.0,7.0,57,0.00,,,0.00,meteohub,2013-08-11 19:13:00,
2013-08-11 15:19:00,94.8,76.6,30.11,East,82,2.0,8.0,56,0.00,,,0.00,meteohub,2013-08-11 19:19:00,
2013-08-11 15:24:00,95.2,77.5,30.11,East,82,3.0,8.0,57,0.00,,,0.00,meteohub,2013-08-11 19:24:00,
2013-08-11 15:30:00,95.4,77.2,30.10,East,82,1.0,8.0,56,0.00,,,0.00,meteohub,2013-08-11 19:30:00,
2013-08-11 15:35:00,94.8,76.6,30.10,East,82,3.0,6.0,56,0.00,,,0.00,meteohub,2013-08-11 19:35:00,
2013-08-11 15:40:00,94.5,76.8,30.10,East,82,0.0,6.0,57,0.00,,,0.00,meteohub,2013-08-11 19:40:00,
2013-08-11 15:45:00,93.6,76.6,30.10,East,82,1.0,6.0,58,0.00,,,0.00,meteohub,2013-08-11 19:45:00,
2013-08-11 15:51:00,92.5,75.6,30.10,East,82,3.0,6.0,58,0.00,,,0.00,meteohub,2013-08-11 19:51:00,
2013-08-11 15:56:00,91.8,75.4,30.10,East,82,3.0,6.0,59,0.00,,,0.00,meteohub,2013-08-11 19:56:00,
2013-08-11 16:01:00,91.6,74.1,30.09,East,82,2.0,6.0,57,0.00,,,0.00,meteohub,2013-08-11 20:01:00,
2013-08-11 16:07:00,91.8,74.8,30.09,East,82,1.0,6.0,58,0.00,,,0.00,meteohub,2013-08-11 20:07:00,
2013-08-11 16:12:00,91.9,75.6,30.09,East,82,1.0,6.0,59,0.00,,,0.00,meteohub,2013-08-11 20:12:00,
2013-08-11 16:17:00,92.5,76.6,30.09,East,82,0.0,5.0,60,0.00,,,0.00,meteohub,2013-08-11 20:17:00,
2013-08-11 16:22:00,93.4,75.9,30.09,East,82,0.0,5.0,57,0.00,,,0.00,meteohub,2013-08-11 20:22:00,
2013-08-11 16:27:00,94.5,76.3,30.09,East,82,0.0,2.0,56,0.00,,,0.00,meteohub,2013-08-11 20:27:00,
2013-08-11 16:32:00,95.4,77.2,30.08,East,82,0.0,2.0,56,0.00,,,0.00,meteohub,2013-08-11 20:32:00,
2013-08-11 16:37:00,96.1,76.1,30.08,East,82,0.0,3.0,53,0.00,,,0.00,meteohub,2013-08-11 20:37:00,
2013-08-11 16:42:00,97.5,77.5,30.08,East,82,0.0,3.0,53,0.00,,,0.00,meteohub,2013-08-11 20:42:00,
2013-08-11 16:47:00,98.2,77.0,30.08,East,82,1.0,3.0,51,0.00,,,0.00,meteohub,2013-08-11 20:47:00,
2013-08-11 16:52:00,99.0,77.0,30.08,East,82,0.0,2.0,50,0.00,,,0.00,meteohub,2013-08-11 20:52:00,
2013-08-11 16:58:00,99.1,75.9,30.08,East,82,0.0,2.0,48,0.00,,,0.00,meteohub,2013-08-11 20:58:00,
2013-08-11 17:03:00,98.2,77.0,30.07,East,82,0.0,2.0,51,0.00,,,0.00,meteohub,2013-08-11 21:03:00,
2013-08-11 17:09:00,98.4,75.9,30.07,East,82,0.0,2.0,49,0.00,,,0.00,meteohub,2013-08-11 21:09:00,
2013-08-11 17:14:00,98.1,76.3,30.07,East,82,0.0,3.0,50,0.00,,,0.00,meteohub,2013-08-11 21:14:00,
2013-08-11 17:19:00,97.3,76.1,30.07,East,82,0.0,3.0,51,0.00,,,0.00,meteohub,2013-08-11 21:19:00,
2013-08-11 17:24:00,97.2,75.9,30.06,East,82,0.0,3.0,51,0.00,,,0.00,meteohub,2013-08-11 21:24:00,
2013-08-11 17:29:00,97.3,76.1,30.06,East,82,1.0,2.0,51,0.00,,,0.00,meteohub,2013-08-11 21:29:00,
2013-08-11 17:34:00,97.7,77.0,30.06,East,82,0.0,2.0,52,0.00,,,0.00,meteohub,2013-08-11 21:34:00,
2013-08-11 17:40:00,95.7,78.1,30.07,East,82,1.0,2.0,57,0.00,,,0.00,meteohub,2013-08-11 21:40:00,
2013-08-11 17:45:00,93.7,77.7,30.07,ENE,57,4.0,6.0,60,0.00,,,0.00,meteohub,2013-08-11 21:45:00,
2013-08-11 17:51:00,93.9,77.9,30.06,ENE,57,1.0,6.0,60,0.00,,,0.00,meteohub,2013-08-11 21:51:00,
2013-08-11 17:56:00,93.7,77.7,30.06,North,355,0.0,5.0,60,0.00,,,0.00,meteohub,2013-08-11 21:56:00,
2013-08-11 18:01:00,92.7,77.7,30.07,NW,316,7.0,7.0,62,0.00,,,0.00,meteohub,2013-08-11 22:01:00,
2013-08-11 18:07:00,91.9,77.5,30.07,NW,311,4.0,7.0,63,0.00,,,0.00,meteohub,2013-08-11 22:07:00,
2013-08-11 18:12:00,91.2,77.4,30.07,NW,305,4.0,7.0,64,0.00,,,0.00,meteohub,2013-08-11 22:12:00,
2013-08-11 18:17:00,91.6,77.7,30.07,NW,307,4.0,7.0,64,0.00,,,0.00,meteohub,2013-08-11 22:17:00,
2013-08-11 18:22:00,91.8,77.4,30.07,NW,307,3.0,7.0,63,0.00,,,0.00,meteohub,2013-08-11 22:22:00,
2013-08-11 18:27:00,91.8,77.4,30.07,NW,314,1.0,7.0,63,0.00,,,0.00,meteohub,2013-08-11 22:27:00,
2013-08-11 18:32:00,91.6,77.7,30.07,NW,325,0.0,7.0,64,0.00,,,0.00,meteohub,2013-08-11 22:32:00,
2013-08-11 18:37:00,91.6,77.7,30.07,NW,321,4.0,7.0,64,0.00,,,0.00,meteohub,2013-08-11 22:37:00,
2013-08-11 18:42:00,91.2,77.4,30.07,NW,321,1.0,7.0,64,0.00,,,0.00,meteohub,2013-08-11 22:42:00,
2013-08-11 18:48:00,91.2,77.4,30.07,NW,321,5.0,7.0,64,0.00,,,0.00,meteohub,2013-08-11 22:48:00,
2013-08-11 18:53:00,90.9,77.5,30.07,NW,321,1.0,6.0,65,0.00,,,0.00,meteohub,2013-08-11 22:53:00,
2013-08-11 18:58:00,90.3,77.4,30.07,NW,314,2.0,6.0,66,0.00,,,0.00,meteohub,2013-08-11 22:58:00,
2013-08-11 19:04:00,89.8,77.4,30.08,NW,318,3.0,6.0,67,0.00,,,0.00,meteohub,2013-08-11 23:04:00,
2013-08-11 19:09:00,89.4,77.0,30.08,NW,308,3.0,7.0,67,0.00,,,0.00,meteohub,2013-08-11 23:09:00,
2013-08-11 19:14:00,89.1,77.2,30.08,WNW,288,2.0,7.0,68,0.00,,,0.00,meteohub,2013-08-11 23:14:00,
2013-08-11 19:20:00,88.9,77.0,30.08,WNW,294,5.0,7.0,68,0.00,,,0.00,meteohub,2013-08-11 23:20:00,
2013-08-11 19:25:00,88.5,76.6,30.08,WNW,299,4.0,7.0,68,0.00,,,0.00,meteohub,2013-08-11 23:25:00,
2013-08-11 19:30:00,88.2,76.6,30.08,NW,311,3.0,9.0,69,0.00,,,0.00,meteohub,2013-08-11 23:30:00,
2013-08-11 19:36:00,87.8,76.8,30.08,NW,310,0.0,9.0,70,0.00,,,0.00,meteohub,2013-08-11 23:36:00,
2013-08-11 19:42:00,87.6,76.6,30.08,NW,310,4.0,9.0,70,0.00,,,0.00,meteohub,2013-08-11 23:42:00,
2013-08-11 19:47:00,87.3,76.6,30.08,NW,311,2.0,7.0,71,0.00,,,0.00,meteohub,2013-08-11 23:47:00,
2013-08-11 19:52:00,87.1,76.5,30.09,NW,315,5.0,7.0,71,0.00,,,0.00,meteohub,2013-08-11 23:52:00,
2013-08-11 19:57:00,86.9,76.3,30.09,NW,314,0.0,7.0,71,0.00,,,0.00,meteohub,2013-08-11 23:57:00,
2013-08-11 20:03:00,86.5,75.9,30.09,NW,307,4.0,6.0,71,0.00,,,0.00,meteohub,2013-08-12 00:03:00,
2013-08-11 20:08:00,86.4,76.3,30.09,NW,308,1.0,8.0,72,0.00,,,0.00,meteohub,2013-08-12 00:08:00,
2013-08-11 20:13:00,86.4,76.3,30.09,NW,306,0.0,8.0,72,0.00,,,0.00,meteohub,2013-08-12 00:13:00,
2013-08-11 20:19:00,86.2,76.1,30.09,NW,306,0.0,8.0,72,0.00,,,0.00,meteohub,2013-08-12 00:19:00,
2013-08-11 20:24:00,86.0,75.9,30.09,NW,306,1.0,8.0,72,0.00,,,0.00,meteohub,2013-08-12 00:24:00,
2013-08-11 20:30:00,86.0,76.3,30.09,NW,306,2.0,5.0,73,0.00,,,0.00,meteohub,2013-08-12 00:30:00,
2013-08-11 20:35:00,85.8,76.1,30.10,NW,306,0.0,6.0,73,0.00,,,0.00,meteohub,2013-08-12 00:35:00,
2013-08-11 20:40:00,85.6,75.9,30.09,NW,306,3.0,6.0,73,0.00,,,0.00,meteohub,2013-08-12 00:40:00,
2013-08-11 20:45:00,85.6,75.9,30.09,NW,306,0.0,6.0,73,0.00,,,0.00,meteohub,2013-08-12 00:45:00,
2013-08-11 20:51:00,85.6,75.9,30.09,NW,306,1.0,5.0,73,0.00,,,0.00,meteohub,2013-08-12 00:51:00,
2013-08-11 20:56:00,85.6,75.9,30.09,NW,306,0.0,5.0,73,0.00,,,0.00,meteohub,2013-08-12 00:56:00,
2013-08-11 21:01:00,85.5,76.3,30.09,NW,306,0.0,4.0,74,0.00,,,0.00,meteohub,2013-08-12 01:01:00,
2013-08-11 21:07:00,85.5,76.3,30.10,NW,306,3.0,4.0,74,0.00,,,0.00,meteohub,2013-08-12 01:07:00,
2013-08-11 21:12:00,85.5,76.3,30.10,NW,306,0.0,4.0,74,0.00,,,0.00,meteohub,2013-08-12 01:12:00,
2013-08-11 21:17:00,85.5,76.3,30.10,NW,306,0.0,4.0,74,0.00,,,0.00,meteohub,2013-08-12 01:17:00,
2013-08-11 21:22:00,85.3,76.1,30.10,NW,306,1.0,4.0,74,0.00,,,0.00,meteohub,2013-08-12 01:22:00,
2013-08-11 21:27:00,85.3,76.1,30.11,NW,306,0.0,4.0,74,0.00,,,0.00,meteohub,2013-08-12 01:27:00,
2013-08-11 21:32:00,85.3,76.5,30.11,NW,306,0.0,4.0,75,0.00,,,0.00,meteohub,2013-08-12 01:32:00,
2013-08-11 21:37:00,85.1,76.3,30.11,NW,306,0.0,4.0,75,0.00,,,0.00,meteohub,2013-08-12 01:37:00,
2013-08-11 21:43:00,84.9,76.1,30.11,NW,306,0.0,3.0,75,0.00,,,0.00,meteohub,2013-08-12 01:43:00,
2013-08-11 21:48:00,84.9,76.1,30.11,NW,306,0.0,2.0,75,0.00,,,0.00,meteohub,2013-08-12 01:48:00,
2013-08-11 21:53:00,84.9,76.1,30.12,NW,306,0.0,2.0,75,0.00,,,0.00,meteohub,2013-08-12 01:53:00,
2013-08-11 21:58:00,84.9,76.1,30.12,NW,306,0.0,4.0,75,0.00,,,0.00,meteohub,2013-08-12 01:58:00,
2013-08-11 22:03:00,84.9,76.1,30.12,NW,306,0.0,4.0,75,0.00,,,0.00,meteohub,2013-08-12 02:03:00,
2013-08-11 22:08:00,84.7,76.3,30.12,NW,306,0.0,3.0,76,0.00,,,0.00,meteohub,2013-08-12 02:08:00,
2013-08-11 22:14:00,84.7,76.3,30.12,NW,306,0.0,3.0,76,0.00,,,0.00,meteohub,2013-08-12 02:14:00,
2013-08-11 22:19:00,84.7,76.3,30.13,NW,306,0.0,3.0,76,0.00,,,0.00,meteohub,2013-08-12 02:19:00,
2013-08-11 22:24:00,84.7,76.3,30.13,NW,306,1.0,2.0,76,0.00,,,0.00,meteohub,2013-08-12 02:24:00,
2013-08-11 22:30:00,84.6,76.1,30.13,NW,306,0.0,3.0,76,0.00,,,0.00,meteohub,2013-08-12 02:30:00,
2013-08-11 22:35:00,84.6,76.1,30.13,NW,306,0.0,3.0,76,0.00,,,0.00,meteohub,2013-08-12 02:35:00,
2013-08-11 22:40:00,84.6,76.1,30.13,NW,306,0.0,1.0,76,0.00,,,0.00,meteohub,2013-08-12 02:40:00,
2013-08-11 22:46:00,84.4,76.5,30.13,NW,306,0.0,1.0,77,0.00,,,0.00,meteohub,2013-08-12 02:46:00,
2013-08-11 22:51:00,84.4,76.5,30.13,NW,306,0.0,1.0,77,0.00,,,0.00,meteohub,2013-08-12 02:51:00,
2013-08-11 22:56:00,84.2,76.3,30.13,NW,306,0.0,0.0,77,0.00,,,0.00,meteohub,2013-08-12 02:56:00,
2013-08-11 23:01:00,84.0,76.1,30.13,NW,306,0.0,0.0,77,0.00,,,0.00,meteohub,2013-08-12 03:01:00,
2013-08-11 23:06:00,84.0,76.1,30.13,NW,306,0.0,0.0,77,0.00,,,0.00,meteohub,2013-08-12 03:06:00,
2013-08-11 23:12:00,84.0,76.1,30.13,NW,306,0.0,0.0,77,0.00,,,0.00,meteohub,2013-08-12 03:12:00,
2013-08-11 23:17:00,83.8,75.9,30.13,NW,306,0.0,1.0,77,0.00,,,0.00,meteohub,2013-08-12 03:17:00,
2013-08-11 23:22:00,83.8,76.3,30.13,NW,306,0.0,1.0,78,0.00,,,0.00,meteohub,2013-08-12 03:22:00,
2013-08-11 23:27:00,83.8,76.3,30.13,NW,306,0.0,1.0,78,0.00,,,0.00,meteohub,2013-08-12 03:27:00,
2013-08-11 23:32:00,83.7,76.1,30.13,NW,306,0.0,1.0,78,0.00,,,0.00,meteohub,2013-08-12 03:32:00,
2013-08-11 23:37:00,83.7,76.1,30.13,NW,306,0.0,0.0,78,0.00,,,0.00,meteohub,2013-08-12 03:37:00,
2013-08-11 23:42:00,83.7,76.1,30.14,NW,306,0.0,0.0,78,0.00,,,0.00,meteohub,2013-08-12 03:42:00,
2013-08-11 23:47:00,83.5,75.9,30.14,NW,306,0.0,1.0,78,0.00,,,0.00,meteohub,2013-08-12 03:47:00,
2013-08-11 23:52:00,83.3,76.1,30.14,NW,306,0.0,2.0,79,0.00,,,0.00,meteohub,2013-08-12 03:52:00,
2013-08-11 23:57:00,83.1,75.9,30.14,NW,306,0.0,2.0,79,0.00,,,0.00,meteohub,2013-08-12 03:57:00,